Regional Weather Roundup
Issued by NWS

Home | Current Version | Previous Version | Text Only | Print | Product List | Glossary Off
Versions: 1 2 3 4 5 6 7 8 9 10 11 12 13 14 15 16 17 18 19 20 21 22 23 24 25 26 27

000
ASUS45 KSLC 231110
RWRUT

UTAH REGIONAL WEATHER ROUNDUP
NATIONAL WEATHER SERVICE SALT LAKE CITY UT
500 AM MDT SUN JUL 23 2017

UTZ001>011-023>025-231200-

NORTHERN UTAH

CITY           SKY/WX    TMP DP  RH WIND       PRES   REMARKS
BRIGHAM CITY   PTCLDY    65  44  47 CALM      30.07R
HILL AFB       PTCLDY    70  38  31 E16       30.09R
LOGAN          PTCLDY    58  48  69 CALM      30.13R
OGDEN          PTCLDY    67  41  38 S5        30.06R
SALT LAKE CITY MOCLDY    74  48  39 CALM      30.04S
TOOELE VALLEY  PTCLDY    68  46  45 S8        30.07R
WENDOVER       MOCLDY    76  35  22 CALM      30.06S
HEBER CITY     CLOUDY    57  46  67 CALM      30.19R
WEST JORDAN    PTCLDY    65  50  58 CALM      30.08S

$$

UTZ011>015-024>027-231200-

CENTRAL/NORTHEAST UTAH

CITY           SKY/WX    TMP DP  RH WIND       PRES   REMARKS
PROVO AIRPORT  MOCLDY    67  53  61 E6        30.10R
MOAB/CANYONLAN CLEAR     72  55  55 SE6       30.07R
DELTA          MOCLDY    70  45  40 E6        30.09S
PRICE          MOCLDY    65  44  46 W6        30.18R
RICHFIELD      CLEAR     63  55  77 CALM      30.17S
ROOSEVELT      CLOUDY    59  45  58 SW6       30.16S
VERNAL         CLOUDY    62  43  49 W3        30.15R

$$

UTZ013>016-019>022-027-231200-

SOUTHERN UTAH

CITY           SKY/WX    TMP DP  RH WIND       PRES   REMARKS
BRYCE CANYON   PTCLDY    53  47  79 W7        30.33S
CEDAR CITY     MOCLDY    66  45  46 NW3       30.14S
MILFORD        CLOUDY    69  49  48 CALM      30.10S
ST GEORGE      CLOUDY    79  50  36 SE7       29.93S
HANKSVILLE     PTCLDY    68  41  37 CALM      30.09R
KANAB          CLEAR     68  52  56 NE7       30.13S
BLANDING       PTCLDY    61  51  71 N7        30.26S

$$

REGIONAL REPORTS     COLORADO/ARIZONA

CITY           SKY/WX    TMP DP  RH WIND       PRES   REMARKS
CRAIG, CO      CLOUDY    47  41  80 W3        30.25S
GRAND JUNCTION CLEAR     69  49  48 E14       30.13R
RIFLE, CO      CLEAR     58  42  55 E5        30.21S
MONTROSE, CO   CLEAR     63  48  58 S10       30.23S
CORTEZ, CO     CLOUDY    56  52  86 E3        30.22R
COLORADO CITY    N/A     68  55  64 CALM      30.11S
PAGE, AZ       CLEAR     77  52  41 E7        30.04R
GRAND CANYON   MOCLDY    65  54  67 E3        30.23R
KINGMAN, AZ    PTCLDY    70  65  84 S3        29.97S
FLAGSTAFF, AZ  CLOUDY    59  56  89 CALM      30.26S

$$

REGIONAL REPORTS    NEVADA/IDAHO/WYOMING

CITY           SKY/WX    TMP DP  RH WIND       PRES   REMARKS
LAS VEGAS, NV  PTCLDY    91  57  31 W6        29.84R
ELY, NY        CLOUDY   N/A N/A N/A E3        30.22F
ELKO, NV       PTCLDY    59  40  49 S3        30.14R
POCATELLO, ID  CLOUDY    58  37  45 E7        30.13F
BURLEY, ID     MOCLDY    61  45  55 E3        30.07F
FORT BRIDGER,    N/A     57  30  35 NW6       30.32R
EVANSTON, WY   CLOUDY    57  34  41 E5        30.30S
ROCK SPRINGS,  CLOUDY    60  32  34 W7        30.27R
KEMMERER, WY     N/A     52  32  46 NW12      30.32S

$$




USA.gov is the U.S. government's official web portal to all federal, state and local government web resources and services.